[TLELIST] Archives

 

[list_settings.list_name] Current TLEs

February 17th 2013 PDT

HST 1 20580U 90037B 13047.16819091 .00001375 00000-0 86662-4 0 1769 2 20580 028.4705 345.9789 0003656 145.0959 214.9871 15.03288048 51468 ISS (ZARYA) 1 25544U 98067A 13047.26016378 .00011646 00000-0 19316-3 0 2318 2 25544 051.6500 348.9797 0012394 280.4426 230.9597 15.52539242815929 CXO 1 25867U 99040B 13048.90605499 -.00000186 00000-0 00000+0 0 8565 2 25867 074.6064 347.1480 8651599 277.9456 000.6537 00.37800146 10086 ____________________________________________________________________ These 2-Line ...Continue Reading

[list_settings.list_name] Current TLEs

February 16th 2013 PDT

HST 1 20580U 90037B 13047.16819091 .00001375 00000-0 86662-4 0 1769 2 20580 028.4705 345.9789 0003656 145.0959 214.9871 15.03288048 51468 ISS (ZARYA) 1 25544U 98067A 13047.26016378 .00011646 00000-0 19316-3 0 2318 2 25544 051.6500 348.9797 0012394 280.4426 230.9597 15.52539242815929 CXO 1 25867U 99040B 13048.90605499 -.00000186 00000-0 00000+0 0 8565 2 25867 074.6064 347.1480 8651599 277.9456 000.6537 00.37800146 10086 ____________________________________________________________________ These 2-Line ...Continue Reading

[list_settings.list_name] Current TLEs

February 15th 2013 PDT

HST 1 20580U 90037B 13045.90678200 .00001309 00000-0 81923-4 0 1755 2 20580 028.4704 354.2445 0003589 131.6589 228.4323 15.03284709 51275 ISS (ZARYA) 1 25544U 98067A 13046.47988606 .00010084 00000-0 16848-3 0 2246 2 25544 051.6496 352.8593 0012132 276.2160 191.2340 15.52514351815805 CXO 1 25867U 99040B 13048.90605499 -.00000186 00000-0 00000+0 0 8565 2 25867 074.6064 347.1480 8651599 277.9456 000.6537 00.37800146 10086 ____________________________________________________________________ These 2-Line ...Continue Reading

[list_settings.list_name] Current TLEs

February 14th 2013 PDT

HST 1 20580U 90037B 13044.31341781 .00001265 00000-0 78769-4 0 1744 2 20580 028.4703 004.6838 0003495 115.7630 244.3323 15.03280845 51030 ISS (ZARYA) 1 25544U 98067A 13045.44845087 .00008416 00000-0 14203-3 0 2178 2 25544 051.6497 357.9878 0012205 272.7067 186.2081 15.52486173815644 CXO 1 25867U 99040B 13046.26265571 -.00000367 00000-0 00000+0 0 8555 2 25867 074.5977 347.2969 8653422 277.9793 000.7627 00.37800897 10075 ____________________________________________________________________ These 2-Line ...Continue Reading

[list_settings.list_name] Current TLEs

February 13th 2013 PDT

HST 1 20580U 90037B 13043.18478211 .00001388 00000-0 87626-4 0 1734 2 20580 028.4698 012.0790 0003454 104.4231 255.6741 15.03278533 50860 ISS (ZARYA) 1 25544U 98067A 13044.48361204 .00007858 00000-0 13323-3 0 2109 2 25544 051.6492 002.7847 0012267 268.9557 193.9752 15.52466133815496 CXO 1 25867U 99040B 13046.26265571 -.00000367 00000-0 00000+0 0 8555 2 25867 074.5977 347.2969 8653422 277.9793 000.7627 00.37800897 10075 ____________________________________________________________________ These 2-Line ...Continue Reading

[list_settings.list_name] Current TLEs

February 12th 2013 PDT

HST 1 20580U 90037B 13043.18478211 .00001388 00000-0 87626-4 0 1734 2 20580 028.4698 012.0790 0003454 104.4231 255.6741 15.03278533 50860 ISS (ZARYA) 1 25544U 98067A 13043.33384477 .00008972 00000-0 15108-3 0 2021 2 25544 051.6484 008.5005 0012304 264.6559 248.1662 15.52451414815314 CXO 1 25867U 99040B 13046.26265571 -.00000367 00000-0 00000+0 0 8555 2 25867 074.5977 347.2969 8653422 277.9793 000.7627 00.37800897 10075 ____________________________________________________________________ These 2-Line ...Continue Reading

[list_settings.list_name] Current TLEs

February 11th 2013 PDT

HST 1 20580U 90037B 13041.32584886 .00001320 00000-0 82790-4 0 1726 2 20580 028.4696 024.2589 0003455 084.9392 275.1599 15.03273611 50589 ISS (ZARYA) 1 25544U 98067A 13042.10021568 .00009549 00000-0 16043-3 0 1955 2 25544 051.6484 014.6335 0012183 260.9055 192.8707 15.52430028815125 CXO 1 25867U 99040B 13043.61765561 -.00000332 00000-0 00000+0 0 8546 2 25867 074.5853 347.4440 8658042 278.0065 000.6991 00.37803381 10064 ____________________________________________________________________ These 2-Line ...Continue Reading

[list_settings.list_name] Current TLEs

February 10th 2013 PDT

HST 1 20580U 90037B 13040.19720716 .00001175 00000-0 72337-4 0 1717 2 20580 028.4698 031.6578 0003179 072.9849 287.1086 15.03270303 50419 ISS (ZARYA) 1 25544U 98067A 13041.21452546 .00010002 00000-0 16774-3 0 1889 2 25544 051.6480 019.0369 0012351 257.0739 283.5624 15.52414186814986 CXO 1 25867U 99040B 13043.61765561 -.00000332 00000-0 00000+0 0 8546 2 25867 074.5853 347.4440 8658042 278.0065 000.6991 00.37803381 10064 ____________________________________________________________________ These 2-Line ...Continue Reading

[list_settings.list_name] Current TLEs

February 9th 2013 PDT

HST 1 20580U 90037B 13040.19720716 .00001175 00000-0 72337-4 0 1717 2 20580 028.4698 031.6578 0003179 072.9849 287.1086 15.03270303 50419 ISS (ZARYA) 1 25544U 98067A 13040.23908130 .00010225 00000-0 17143-3 0 1838 2 25544 051.6484 023.8868 0012381 253.6468 231.9622 15.52394415814832 CXO 1 25867U 99040B 13040.97090344 -.00000168 00000-0 00000+0 0 8538 2 25867 074.5635 347.6293 8662872 278.0035 000.4833 00.37802803 10053 ____________________________________________________________________ These 2-Line ...Continue Reading

[list_settings.list_name] Current TLEs

February 8th 2013 PDT

HST 1 20580U 90037B 13038.40465337 .00001287 00000-0 80409-4 0 1705 2 20580 028.4696 043.4001 0003234 052.3866 307.7017 15.03266818 50141 ISS (ZARYA) 1 25544U 98067A 13039.27396005 .00010512 00000-0 17615-3 0 1767 2 25544 051.6484 028.6847 0012348 249.6978 238.6844 15.52374806814681 CXO 1 25867U 99040B 13040.97090344 -.00000168 00000-0 00000+0 0 8538 2 25867 074.5635 347.6293 8662872 278.0035 000.4833 00.37802803 10053 ____________________________________________________________________ These 2-Line ...Continue Reading
  • This mailing list is a public mailing list - anyone may join or leave, at any time.
  • This mailing list is announce-only.

International Space Station (ISS) / Hubble Space Telescope (HST) / Chandra X-Ray Observatory Orbital Data via EMAIL

Privacy Policy:

Private list